Погода в Дашогузе

Поиск расширенной информации на нашем сайте:

Полезная информация:

Новости сайта



02.01.2020
Опубликован Долгосрочный прогноз погоды по городам России и ближнего зарубежья на январь 2020 года.
Карты: Прогноз на январь и февраль 2020 года, Сравнение прогнозируемой аномалии приземной температуры воздуха на январь 2020 года по разным моделям.




Погода в Дашогузе - сегодня

Время (UTC), дата Ветер
(°,м/с) 
Видим.   Явления Облачность Т
(°С)
Тd
(°С)
f(%) Тe
(°С)
Pmin
(гПа)
dP
(гПа)
Po
(мм)
O2
(г/м3)
Тmin Tmax R s Состояние
почвы
15 27.03.20 030 (СВ) 10 км    ясно 
+11.5 -7.4 26 +11  1023.5  0.1  760  295    +15.5       
18 27.03.20 010 (С) 10 км    ясно 
+7.4 -4.7 42 +7  1023.9  0.3  760  299    +15.5       
21 27.03.20 020 (С) 10 км    ясно 
+3.7 -7.8 43 +2  1023.4  -0.7  760  303           
00 28.03.20 020 (С) 10 км    ясно 
+1.7 -8.2 48 1023.1  -0.3  759  305           
03 28.03.20 030 (СВ) 10 км    ясно 
+1.6 -7.4 51 -1  1023.9  0.8  760  305  +0.6        сухая 
06 28.03.20 070 (В) 10 км    3/0 верхняя 
[Ci sp]
+13.6 -7.1 23 +13  1023.7  0.2  760  293  +0.6         
09 28.03.20 100 (В) 10 км    3/0 верхняя 
[Ci sp]
+16.6 -7.8 18 +16  1022.3  -1.3  759  289           
12 28.03.20 100 (В) 10 км    3/0 верхняя 
[Ci]
+18.2 -9.4 14 +18  1020.8  -1.5  758  287           
15 28.03.20 070 (В) 10 км    3/0 верхняя 
[Ci sp]
+14.8 -6.4 23 +14  1020.4  -0.4  758  290    +18.6       
18 28.03.20 070 (В) 10 км    3/0 верхняя 
[Ci sp]
+10.7 -7.4 27 +10  1020.4  -0.2  758  295    +18.6       
21 28.03.20 080 (В) 10 км    3/0 верхняя 
[Ci sp]
+9 -8.2 29 +7  1019.6  -0.8  757  296           
00 29.03.20 090 (В) 10 км    3/0 верхняя 
[Ci sp]
+7.1 -9 31 +5  1018.5  -1.2  756  298           
03 29.03.20 100 (В) 10 км    3/0 верхняя 
[Ci sp]
+6.5 -8.5 33 +4  1018.8  0.3  756  299  +4.8        сухая 
06 29.03.20 110 (В) 10 км    3/0 верхняя 
[Ci fib]
+15.8 -6 22 +15  1017.5  -0.9  756  288  +4.8         
09 29.03.20 100 (В) 10 км    3/0 верхняя 
[Ci fib]
+19.9 -5 18 +20  1014.5  -2.9  754  284           
12 29.03.20 100 (В) 10 км    3/0 верхняя 
[Ci fib]
+20.8 -6 16 +21  1011.6  -2.8  751  282           
15 29.03.20 070 (В) 10 км    3/0 верхняя 
[Ci fib]
+16.3 -4.4 24 +16  1011.1  -0.7  751  286    +21.4       
18 29.03.20 080 (В) 10 км    3/0 верхняя 
[Ci fib]
+13.4 -3.8 30 +12  1010.6  -0.6  750  289    +21.4       
21 29.03.20 100 (В) 10 км    3/0 верхняя 
[Ci fib]
+11.8 -4.7 31 +11  1008.7  -1.9  749  290           
00 30.03.20 110 (В) 10 км    3/0 верхняя 
[Ci fib]
+10 -2.5 41 +8  1008.4  -0.4  749  291           
03 30.03.20 100 (В) 10 км    10/0 средняя, верхняя 
[Ac und|Cs]
+10.3 +4.1 65 +9  1007.9  -0.6  748  290  +9.1        сухая 
06 30.03.20 100 (В) 10 км    10/0 средняя 
[Ac As]
+15.1 -1.9 31 +14  1006.8  -0.8  748  286  -9.1         
09 30.03.20 110 (В) 10 км    10/0 средняя 
[Ac As]
+20.6 +1.3 28 +21  1004.5  -2.1  746  279           
12 30.03.20 110 (В) 10 км    10/3 2000 м кучево-дожд., средняя 
[Cb calv|Ac As]
+20.7 +3.2 31 +21  1002.3  -2.1  745  278           
15 30.03.20 100 (В) 10 км    10/3 2000 м кучево-дожд., средняя 
[Cb cap|Ac As]
+17.5 +9.8 61 +18  1001.6  -0.9  744  280    +21.2       
Время (UTC), дата Ветер
(°,м/с) 
Видим.   Явления Облачность Т
(°С)
Тd
(°С)
f(%) Тe
(°С)
Pmin
(гПа)
dP
(гПа)
Po
(мм)
O2
(г/м3)
Тmin Tmax R s Состояние
почвы

Для получения пояснительной информации подведите курсор к названию столбца.

ПОГОДА в Дашогузе - архив

Всё, что Вы хотите узнать о погоде в Дашогузе - удобно и подробно!

Выберите нужную дату (начиная с 1 января 2019* года) и нажмите кнопку "Найти".
Будут отображены архивные сводки погоды по пункту Дашогуз, начиная с указанной даты.


Отображать данные в формате CSV (для использования в таблицах Excel)


Внимание! Наш архив погоды предназначен исключительно для личного некоммерческого использования в познавательных целях. Если Вам необходимы официальные справки о состоянии погоды (для производственных, юридических, коммерческих и т.п. целей), обращайтесь в органы Росгидромета.

*Примечание: данная дата относится к архиву по метеостанциям СССР (Россия, СНГ, Балтия).
Архив по метеостанциям Зарубежной Европы и Азии (кроме Китая) хранится 10 дней, по другим регионам земного шара (Китай, Африка, Америка, Австралия, Океания) - 1 день.

Дашогуз - район местоположения метеостанции


Название, широта, долгота, высота метеостанции:
Дашогуз (Ташауз) 41.8°ш. 59.8°д. 82 м над ур. моря [Туркменистан]

Дополнительная информация

В oтличие oт бoльшинства пoгoдных сайтoв мы публикуем пoдрoбную метеoинфoрмацию в детальнoм прoфессиoнальнoм фoрмате.

Характеристики температуры и влажнoсти вoздуха измеряются на высoте 2 м в тени вдали oт зданий и деревьев.
Скoрoсть ветра измеряется на высoте 10 м (на урoвне рoста челoвека скoрoсть ветра ниже в 1.5-2 раза). Если метеoстанция нахoдится в гoрoде или в лесу, тo скoрoсть ветра занижена на 2-4 м/с пo сравнению с oткрытым местoм. Скoрoсть ветра над акватoриями крупных рек и oзёр, а также на вершинах хoлмoв на 2-5 м/с выше, чем в oбычных услoвиях.
Атмoсфернoе давление в разных тoчках местнoсти мoжет значительнo oтличаться oт давления на метеoстанции, в зависимoсти oт услoвий рельефа (при пoдъёме на 10 м давление пoнижается примернo на 1 мм рт.ст.).